SCP
0 0 0 1 1 1 1 1 1 1 1 1 1 1 1 1 1 1 1 1 1 1 1 1 1 1 1 1 1 1 1 1 1 1 1 1 1 1
0 0 0 0 1 1 1 1 1 1 1 1 1 1 1 1 1 1 1 1 1 1 1 1 1 1 1 1 1 1 0 0 1 1 1 1 1 1
0 0 0 0 1 1 1 1 1 1 1 1 1 1 1 1 1 0 0 1 1 1 1 1 1 0 0 0 0 0 0 0 0 0 1 1 1 1
0 0 0 0 1 1 0 0 0 1 1 1 1 1 1 1 1 0 1 1 1 1 1 1 1 0 0 0 0 0 0 0 0 0 0 1 1 1
0 0 0 0 0 0 0 0 0 0 0 1 1 1 1 1 0 0 1 1 1 1 1 1 1 0 0 0 0 0 0 0 0 0 0 1 1 1
0 0 0 0 0 0 0 0 0 0 0 0 0 0 0 0 0 0 0 1 1 1 1 1 1 1 0 0 0 0 0 0 0 0 0 0 0 1
0 0 0 0 0 0 0 0 0 0 0 0 0 0 0 0 0 0 0 0 0 1 1 1 1 1 0 0 0 0 0 0 0 0 0 0 0 0
0 0 0 0 0 0 0 0 0 0 0 0 0 0 0 0 0 0 0 0 0 0 1 1 1 1 0 0 0 0 0 0 0 0 0 0 0 0
0 0 0 0 0 0 0 0 0 0 0 0 0 0 0 0 0 0 0 0 0 0 0 1 1 1 0 0 0 0 0 0 0 0 0 0 0 0
0 0 0 0 0 0 0 0 0 0 0 0 0 0 0 0 0 0 0 0 0 0 0 0 1 0 0 0 0 0 0 0 0 0 0 0 0 0
0 0 0 0 0 0 0 0 0 0 0 0 0 0 0 0 0 0 0 0 0 0 0 0 0 0 0 0 0 0 0 0 0 0 0 0 0 0
0 0 0 0 0 0 0 0 0 0 0 0 0 0 0 0 0 0 0 0 0 0 0 0 0 0 0 0 0 0 0 0 0 0 0 0 0 0
0 0 0 0 0 0 0 0 0 0 0 0 0 0 0 0 0 0 0 0 0 0 0 0 0 0 0 0 0 0 0 0 0 0 0 0 0 0
0 0 0 0 0 0 0 0 0 0 0 0 0 0 0 0 0 0 0 0 0 0 0 0 0 0 0 0 0 0 0 0 0 0 0 0 0 0
0 0 0 0 0 0 0 0 0 0 0 0 0 0 0 0 0 0 0 0 0 0 0 0 0 0 0 0 0 0 0 0 0 0 0 0 0 0
0 0 0 0 0 0 0 0 0 0 0 0 0 0 0 0 0 0 0 0 0 0 0 0 0 0 0 0 0 0 0 0 0 0 0 0 0 0
0 0 0 0 0 0 0 0 0 0 0 0 0 0 0 0 0 0 0 0 0 0 0 0 0 0 0 0 0 0 0 0 0 0 0 0 0 0
0 0 0 0 0 0 0 0 0 0 0 0 0 0 0 0 0 0 0 0 0 0 0 0 0 0 0 0 0 0 0 0 0 0 0 0 0 0
0 0 0 0 0 0 0 0 0 0 0 0 0 0 0 0 0 0 0 0 0 0 0 0 0 0 0 0 0 0 0 0 0 0 0 0 0 0
0 0 0 0 0 0 0 0 0 0 0 0 0 0 0 0 0 0 0 0 0 0 0 0 0 0 0 0 0 0 0 0 0 0 0 0 0 0
0 0 0 0 0 0 0 0 0 0 0 0 0 0 0 0 0 0 0 0 0 0 0 0 0 0 0 0 0 0 0 0 0 0 0 0 0 0
0 0 0 0 0 0 0 0 0 0 0 0 0 0 0 0 0 0 0 0 0 0 0 0 0 0 0 0 0 0 0 0 0 0 0 0 0 0
0 0 0 0 0 0 0 0 0 0 0 0 0 0 0 0 0 0 0 0 0 0 0 0 0 0 0 0 0 0 0 0 0 0 0 0 0 0
Wind_Speed
0 0 0 1 0 0 1 1 2 1 0 1 1 1 1 2 4 3 3 6 8 8 8 7 7 7 7 6 7 7 8 9 9 9 10 11 11 11
1 1 1 1 0 0 1 1 1 1 0 1 0 1 1 2 4 3 3 6 7 8 8 8 8 7 7 7 7 7 7 8 8 8 9 9 9 10
0 1 1 1 1 0 1 1 1 1 1 1 1 0 1 1 1 2 3 3 4 8 8 8 8 8 8 8 8 8 7 7 7 8 9 9 9 10
1 1 0 1 1 0 1 0 0 1 2 1 0 0 0 1 2 2 2 3 2 6 8 9 9 9 9 9 8 8 8 8 8 8 9 9 10 11
1 1 1 1 1 0 1 0 0 1 1 1 1 0 0 1 1 1 2 2 2 4 7 8 9 9 9 8 8 9 9 9 9 8 9 9 9 10
1 1 1 2 2 1 1 1 1 1 1 1 1 1 1 1 0 1 1 1 1 2 3 4 6 9 9 9 9 10 10 10 9 9 9 9 9 9
2 1 2 3 4 2 1 1 1 0 0 1 1 0 1 0 1 1 1 1 2 2 1 2 2 3 5 7 9 10 10 10 10 10 10 10 10 10
1 1 1 2 2 2 1 1 1 0 0 0 1 1 2 1 1 1 1 0 2 1 1 2 2 2 3 4 7 10 11 11 11 10 10 11 11 11
1 0 0 2 1 0 2 3 2 3 3 1 1 1 1 1 1 1 1 1 2 2 0 2 2 3 3 4 7 9 10 11 11 11 11 11 11 11
1 0 1 1 1 1 1 1 1 1 2 2 2 1 1 1 0 1 1 1 2 2 2 2 2 3 3 3 6 8 9 10 10 10 10 11 11 11
0 1 1 2 3 3 1 1 1 2 2 3 3 3 3 3 2 0 0 1 2 2 1 1 2 2 2 2 4 7 7 8 9 10 10 10 10 10
1 2 3 3 3 3 1 1 1 2 2 2 2 3 4 4 5 4 3 2 2 2 1 1 1 0 2 2 1 2 3 6 8 9 9 10 9 5
1 1 2 4 4 3 2 1 2 3 2 2 2 2 1 1 2 2 2 2 2 2 2 1 1 1 2 2 2 2 2 2 3 5 8 9 9 7
1 1 1 1 2 2 1 2 4 4 2 2 1 1 1 1 1 1 1 1 2 3 3 1 1 1 1 2 3 2 2 3 3 3 3 5 7 9
1 2 2 2 1 1 2 3 3 2 1 1 1 1 1 1 1 1 2 2 2 2 2 1 2 2 2 2 3 3 3 3 3 2 3 3 3 3
1 2 2 2 1 2 2 2 1 1 1 1 1 2 2 2 2 1 1 1 1 3 3 2 1 1 2 3 3 4 3 3 2 2 3 3 3 4
1 1 1 2 2 2 2 2 2 3 3 3 2 2 2 2 2 2 2 1 1 2 3 3 2 2 3 3 3 3 3 3 3 3 3 3 4 4
2 1 1 2 2 2 3 3 3 3 3 3 3 3 3 3 3 3 2 2 2 2 3 3 3 3 3 3 3 3 3 3 3 3 3 3 5 4
2 1 2 2 2 2 2 2 3 3 3 3 3 3 3 3 3 3 3 3 3 3 3 3 3 3 4 5 5 3 3 4 3 3 3 4 5 5
2 2 2 2 2 2 2 2 2 3 3 3 3 3 3 3 3 3 3 3 3 4 4 3 3 3 3 5 5 5 5 3 3 4 4 4 4 6
3 3 2 2 2 2 2 2 2 2 3 3 3 3 3 3 3 3 3 4 4 3 4 4 4 7 5 3 4 5 4 5 6 5 4 4 5 4
3 3 3 3 2 2 2 2 2 2 3 3 2 3 3 3 3 4 3 3 3 3 4 4 5 5 4 4 6 7 7 6 6 8 7 5 3 4
3 2 2 2 2 2 2 2 3 3 3 3 3 3 3 3 3 3 3 3 3 4 5 5 5 4 4 5 5 6 8 8 5 5 5 7 9 10
Wind_Direction
248 268 149 208 158 131 122 130 138 132 303 208 115 181 146 129 150 165 157 180 189 192 193 196 202 206 210 216 221 223 225 227 227 228 227 226 226 227
169 184 167 188 114 104 141 152 147 151 201 302 253 184 157 163 168 165 171 180 191 193 197 202 206 209 210 212 217 218 221 225 230 230 228 228 227 227
48 108 163 136 119 184 131 153 181 146 167 292 1 80 138 145 165 189 186 188 192 200 201 205 209 212 214 213 214 216 218 221 227 233 231 228 229 230
27 40 36 102 114 88 91 110 145 166 158 169 304 356 51 199 193 200 204 195 190 201 206 209 211 213 215 215 214 215 217 221 226 233 234 234 235 235
52 59 42 65 70 74 127 122 144 133 126 154 207 306 250 243 212 222 220 205 217 205 208 211 213 214 215 216 216 218 219 221 225 229 233 238 238 236
52 65 69 72 54 30 43 43 81 105 135 167 195 220 240 259 187 224 260 238 239 218 209 206 211 217 220 220 221 222 222 223 224 226 228 232 235 236
38 46 80 96 90 81 59 21 23 50 175 179 204 233 247 235 229 239 254 270 259 220 201 218 206 217 221 223 223 223 224 225 225 226 228 230 232 235
54 51 117 117 128 147 178 182 135 134 294 249 237 229 242 224 213 224 238 273 277 254 161 250 221 226 227 216 216 217 220 223 226 228 232 233 233 235
350 72 81 93 112 223 251 231 240 250 240 238 259 273 276 266 205 236 247 236 247 246 190 257 236 235 236 229 223 223 222 221 224 228 232 235 237 239
344 308 127 80 56 7 287 219 205 230 226 216 213 242 274 333 332 234 233 274 286 271 192 237 253 248 246 233 225 222 221 225 229 232 236 237 237 239
34 32 64 83 32 26 359 309 277 269 249 229 223 231 240 257 246 87 318 295 285 274 221 201 257 273 267 245 230 218 219 228 234 238 241 240 240 241
58 73 61 66 46 39 9 339 324 310 318 305 265 256 243 238 225 203 200 220 263 277 243 169 251 279 292 273 229 224 233 242 243 244 245 244 242 236
5 42 51 60 49 26 7 1 312 312 308 299 280 265 251 223 215 214 204 200 225 252 253 194 241 236 236 276 275 243 230 240 239 246 243 239 234 221
348 21 69 63 34 0 342 318 328 336 315 312 322 324 320 292 264 248 252 252 240 247 249 217 221 236 249 271 276 273 258 249 243 244 243 238 235 233
7 5 335 308 310 311 293 312 329 341 342 348 340 325 311 298 331 336 324 324 323 310 293 258 220 223 222 243 265 272 281 270 240 243 248 243 237 231
309 307 297 308 329 328 339 345 357 11 20 354 341 347 356 5 1 344 329 334 332 316 319 320 277 230 246 255 255 267 267 266 271 258 259 259 251 238
347 21 33 34 29 23 21 20 20 21 19 10 13 12 8 5 351 353 353 344 332 310 313 318 311 281 249 247 264 265 268 276 271 269 271 271 261 251
73 59 51 49 43 31 25 19 23 25 14 10 12 12 8 1 354 355 3 1 344 330 323 321 335 342 337 306 250 264 275 275 277 273 265 267 272 267
82 71 65 63 54 42 35 31 21 13 12 17 17 10 6 2 3 0 0 360 347 335 330 342 358 360 334 316 300 272 279 285 285 279 268 261 268 271
82 78 74 69 62 51 39 35 29 20 20 21 20 15 11 9 10 4 1 358 342 335 338 348 353 340 308 294 293 297 287 288 288 283 281 280 276 281
90 84 80 75 67 57 44 33 35 34 27 26 21 14 9 9 6 357 352 349 347 341 336 327 314 316 305 307 305 301 297 287 280 280 282 290 294 293
97 96 86 76 67 57 47 38 35 37 32 28 17 9 5 5 358 351 350 346 340 332 323 316 319 327 328 318 310 306 306 310 301 292 284 272 278 283
104 102 100 90 76 61 48 43 44 41 33 20 12 7 3 354 345 341 339 338 333 332 331 328 328 326 318 311 309 310 312 314 314 312 298 293 288 284